Weather in Kyddzyavidz

Russia / Komi Republic     60°29′29″N   49°36′05″E
temp.,
°C
wind,
m/s
gust,
m/s
humid.,
%
clouds,
%
prec.,
mm/h
press.,
hPa
HPBL,
m
7 may, fri
fri700:00+7s31293100 0.6 1008419
03:00+7sse399699 0.7 1007261
06:00+10s4119028 0.0 1007465
09:00+14ssw51170100 0.0 10081315
12:00+15ssw4968100 0.7 10081312
15:00+16ssw5116378 1.9 10071771
18:00+13sw3779100 1.2 1007553
21:00+7w4892100 6.4 1010697
8 may, sat
sat800:00+6sw399285 0.8 1013493
03:00+4sw29960 0.8 1015270
06:00+6wsw37830 0.0 1017306
09:00+11wsw246158 0.0 1018819
12:00+14ssw23425 0.0 10171643
15:00+15sse35375 0.0 10161971
18:00+14se3749100 0.0 1015380
21:00+9ese31268100 0.0 1014273
9 may, sun
sun900:00+8se41272100 0.0 1013387
03:00+10se51581100 0.0 1011650
06:00+12sse51478100 0.0 1010776
09:00+15sse61564100 0.0 10091188
12:00+17s71559100 0.1 10082270
15:00+13s61782100 1.1 10111412
18:00+12ssw41084100 0.3 10121014
21:00+9wsw4887100 0.4 1015758
10 may, mon
mon1000:00+6w3789100 0.2 1018848
03:00+5wnw4889100 0.3 1021755
06:00+6wnw488056 0.0 1024553
09:00+10wnw46485 0.0 10251469
12:00+13wnw474047 0.0 10262106
15:00+13wnw5640100 0.0 10262029
18:00+12wsw254871 0.0 1026602
21:00+7sw247173 0.0 102664
11 may, tue
tue1100:00+6ssw21079100 0.0 1027203
03:00+8sw31076100 0.0 1027421
06:00+8sw31189100 1.1 1027527
09:00+9sw4118779 1.6 1027448
12:00+19wsw61052100 0.0 10251449
15:00+20wsw51152100 0.0 10251690
18:00+18w5105817 0.0 10251331
21:00+14wsw3127599 0.0 1025401